Location: Lucerne Valley
(34.4439°N, 116.9669°E)
Time: 01:37:03
(UTC-08:00)

Vanguard 3 - All Passes

Search period start: 11 December 2017 00:00
Search period end: 21 December 2017 00:00
Orbit: 509 x 3263 km, 33.3° (Epoch: 10 December)

Date Brightness Start Highest point End Pass type
(mag) Time Alt. Az. Time Alt. Az. Time Alt. Az.
11 Dec - 00:51:48 10° W 00:55:55 59° SSW 01:02:17 10° ESE daylight
11 Dec - 03:03:02 10° WSW 03:08:00 27° SSW 03:15:37 10° SSE visible
11 Dec - 19:16:33 10° SSW 19:20:06 18° SSE 19:22:58 10° ESE daylight
11 Dec - 21:27:29 10° WSW 21:31:22 56° SSE 21:35:02 10° E daylight
11 Dec - 23:38:51 10° W 23:42:33 73° S 23:47:30 10° ESE daylight
12 Dec - 01:49:47 10° W 01:54:08 36° SSW 02:00:53 10° SE visible
12 Dec - 04:02:59 10° SW 04:06:46 15° SSW 04:11:34 10° S visible
12 Dec - 18:04:05 10° S 18:06:26 12° SSE 18:08:28 10° SE daylight
12 Dec - 20:13:47 10° SW 20:18:10 37° SSE 20:21:38 10° E daylight
12 Dec - 22:25:37 10° W 22:29:19 77° S 22:33:20 10° E daylight
13 Dec - 00:36:46 10° W 00:40:36 49° SSW 00:46:11 10° ESE daylight
13 Dec - 02:48:29 10° WSW 02:52:34 20° SSW 02:58:17 10° SSE visible
13 Dec - 18:59:55 10° SW 19:04:47 25° SSE 19:08:19 10° ESE daylight
13 Dec - 21:11:57 10° WSW 21:16:08 65° S 21:19:46 10° E daylight
13 Dec - 23:23:41 10° W 23:27:19 66° S 23:31:48 10° ESE daylight
14 Dec - 01:34:56 10° WSW 01:38:46 27° SSW 01:44:16 10° SE visible
14 Dec - 17:46:13 10° SSW 17:51:04 18° SSE 17:54:40 10° ESE daylight
14 Dec - 19:57:49 10° WSW 20:02:53 47° SSE 20:06:35 10° E daylight
14 Dec - 22:10:17 10° W 22:14:07 77° S 22:17:56 10° E daylight
15 Dec - 00:21:44 10° W 00:25:19 39° SSW 00:30:08 10° SE daylight
15 Dec - 02:34:25 10° SW 02:37:11 14° SSW 02:40:34 10° S visible
15 Dec - 16:33:25 10° S 16:36:59 13° SSE 16:39:56 10° SE daylight
15 Dec - 18:43:23 10° SW 18:49:27 34° SSE 18:53:30 10° E daylight
15 Dec - 20:56:20 10° WSW 21:00:54 72° S 21:04:33 10° E daylight
15 Dec - 23:08:28 10° W 23:12:05 57° SSW 23:16:11 10° ESE daylight
16 Dec - 01:20:16 10° WSW 01:23:26 20° SSW 01:27:34 10° SSE visible
16 Dec - 17:28:56 10° SSW 17:35:40 25° SSE 17:40:12 10° ESE daylight
16 Dec - 19:41:48 10° WSW 19:47:36 57° SSE 19:51:31 10° E daylight
16 Dec - 21:54:52 10° W 21:58:54 74° S 22:02:35 10° E daylight
17 Dec - 00:06:43 10° W 00:10:01 30° SSW 00:14:06 10° SE daylight
17 Dec - 16:14:51 10° SSW 16:21:29 19° SSE 16:26:16 10° ESE daylight
17 Dec - 18:26:51 10° SW 18:34:04 43° SSE 18:38:35 10° E daylight
17 Dec - 20:40:38 10° W 20:45:40 77° S 20:49:23 10° E daylight
17 Dec - 22:53:13 10° W 22:56:50 47° SSW 23:00:36 10° ESE daylight
18 Dec - 01:05:55 10° SW 01:08:05 14° SSW 01:10:37 10° S daylight
18 Dec - 15:02:08 10° S 15:06:53 13° SSE 15:10:48 10° SE daylight
18 Dec - 17:11:46 10° SW 17:20:13 33° SSE 17:25:28 10° E daylight
18 Dec - 19:25:43 10° WSW 19:32:17 67° S 19:36:27 10° E daylight
18 Dec - 21:39:21 10° W 21:43:40 70° S 21:47:19 10° ESE daylight
18 Dec - 23:51:45 10° WSW 23:54:42 23° SSW 23:58:03 10° SSE daylight
19 Dec - 15:56:55 10° SSW 16:05:55 25° SSE 16:11:53 10° ESE daylight
19 Dec - 18:10:18 10° WSW 18:18:40 53° SSE 18:23:35 10° E daylight
19 Dec - 20:24:49 10° W 20:30:24 80° S 20:34:15 10° E daylight
19 Dec - 22:37:53 10° W 22:41:33 39° SSW 22:45:04 10° SE daylight
20 Dec - 14:42:52 10° S 14:51:11 19° SSE 14:57:19 10° ESE visible
20 Dec - 16:54:39 10° SW 17:04:41 42° SSE 17:10:34 10° E daylight
20 Dec - 19:09:33 10° WSW 19:16:56 74° S 19:21:23 10° E daylight
20 Dec - 21:23:44 10° W 21:28:25 64° SSW 21:32:04 10° ESE daylight
20 Dec - 23:36:52 10° WSW 23:39:20 17° SSW 23:41:55 10° SSE daylight
